WetterOnline ( https://www.wetteronline.at )

Wetter aktuell Paganella

Aktuelles Wetter: Paganella (2129m)

6-stündlich | Neueste Meldungen
Ortszeit Temperatur Wetter
Sa, 08.08. 14:00 15.0° C leicht bewölkt
Sa, 08.08. 8:00 12.0° C wolkenlos
Sa, 08.08. 2:00 11.0° C leicht bewölkt
Fr, 07.08. 20:00 13.0° C leicht bewölkt
Fr, 07.08. 14:00 14.0° C wolkig
Fr, 07.08. 8:00 11.0° C leicht bewölkt
Fr, 07.08. 2:00 11.0° C leicht bewölkt
Do, 06.08. 20:00 13.8° C wolkig
Ortszeit Temperatur Wetter
Sa, 08.08. 14:00 15.0° C leicht bewölkt
Sa, 08.08. 13:55 15° C leicht bewölkt
Sa, 08.08. 13:00 15.0° C leicht bewölkt
Sa, 08.08. 12:55 15° C leicht bewölkt
Sa, 08.08. 12:00 14.4° C leicht bewölkt
Sa, 08.08. 11:55 14° C leicht bewölkt
Sa, 08.08. 11:00 14.0° C leicht bewölkt
Sa, 08.08. 10:55 14° C leicht bewölkt
Sa, 08.08. 10:00 13.8° C leicht bewölkt
Ortszeit Relative Feuchte Sichtweite
Sa, 08.08. 14:00 60% 40 km
Sa, 08.08. 8:00 60% 50 km
Sa, 08.08. 2:00 60% 20 km
Fr, 07.08. 20:00 91% 30 km
Fr, 07.08. 14:00 90% 15 km
Fr, 07.08. 8:00 87% 60 km
Fr, 07.08. 2:00 79% 40 km
Do, 06.08. 20:00 81% 50 km
Ortszeit Relative Feuchte Sichtweite
Sa, 08.08. 14:00 60% 40 km
Sa, 08.08. 13:55 59% >10 km
Sa, 08.08. 13:00 60% 35 km
Sa, 08.08. 12:55 59% >10 km
Sa, 08.08. 12:00 73% 40 km
Sa, 08.08. 11:55 77% >10 km
Sa, 08.08. 11:00 73% 20 km
Sa, 08.08. 10:55 72% >10 km
Sa, 08.08. 10:00 76% 50 km
Ortszeit Niederschlagsmenge Niederschlagsart
Sa, 08.08. 14:00 0.0 l/m2 in 6 Std. -
Sa, 08.08. 8:00 0.0 l/m2 in 12 Std. -
Sa, 08.08. 2:00 0.0 l/m2 in 6 Std. -
Fr, 07.08. 20:00 0.0 l/m2 in 12 Std. -
Fr, 07.08. 14:00 0.0 l/m2 in 6 Std. -
Fr, 07.08. 8:00 4 l/m2 in 12 Std. -
Fr, 07.08. 2:00 4 l/m2 in 6 Std. Gewitter, Nebel
Do, 06.08. 20:00 0.0 l/m2 in 12 Std. -
Ortszeit Niederschlagsmenge Niederschlagsart
Sa, 08.08. 14:00 keine Meldung -
Sa, 08.08. 13:55 keine Meldung -
Sa, 08.08. 13:00 keine Meldung -
Sa, 08.08. 12:55 keine Meldung -
Sa, 08.08. 12:00 keine Meldung -
Sa, 08.08. 11:55 keine Meldung -
Sa, 08.08. 11:00 keine Meldung -
Sa, 08.08. 10:55 keine Meldung -
Sa, 08.08. 10:00 keine Meldung -
Ortszeit Stärke Spitze Richtung
km/h Bft. km/h Grad Sektor
Sa, 08.08. 14:00 9 2 - 360° N
Sa, 08.08. 8:00 0 0 - - -
Sa, 08.08. 2:00 19 3 - 210° SW
Fr, 07.08. 20:00 19 3 - 210° SW
Fr, 07.08. 14:00 0 0 - - -
Fr, 07.08. 8:00 9 2 - 200° S
Fr, 07.08. 2:00 4 1 - - -
Do, 06.08. 20:00 17 3 - 230° SW
Ortszeit Stärke Spitze Richtung
km/h Bft. km/h Grad Sektor
Sa, 08.08. 14:00 9 2 - 360° N
Sa, 08.08. 13:55 9 2 - 360° N
Sa, 08.08. 13:00 9 2 - 360° N
Sa, 08.08. 12:55 9 2 - 360° N
Sa, 08.08. 12:00 9 2 - 360° N
Sa, 08.08. 11:55 9 2 - 360° N
Sa, 08.08. 11:00 7 2 - 360° N
Sa, 08.08. 10:55 7 2 - 360° N
Sa, 08.08. 10:00 6 1 - uml. uml.
Ortszeit Untergrenze Bedeckung Gattung
total tief tief mittel hoch
Sa, 08.08. 14:00 150 m 3/8 3/8 Cu - -
Sa, 08.08. 8:00 - 0/8 0/8 - - -
Sa, 08.08. 2:00 1200 m 3/8 3/8 Sc - -
Fr, 07.08. 20:00 150 m 5/8 5/8 Cu - -
Fr, 07.08. 14:00 <30 m 6/8 3/8 Cu Ac -
Fr, 07.08. 8:00 1800 m 3/8 3/8 - Ac -
Fr, 07.08. 2:00 1200 m 4/8 2/8 Cu Ac -
Do, 06.08. 20:00 1800 m 6/8 3/8 Cb Ac Ci
Ortszeit Bedeckungsgrad in Achtel und Wolkenuntergrenze
Sa, 08.08. 14:00 3(150m)
Sa, 08.08. 13:55 3-4(150m)
Sa, 08.08. 13:00 3(150m)
Sa, 08.08. 12:55 3-4(150m)
Sa, 08.08. 12:00 3(30m)
Sa, 08.08. 11:55 3-4(30m)
Sa, 08.08. 11:00 2(30m)
Sa, 08.08. 10:55 1-2(30m)
Sa, 08.08. 10:00 2(600m)
Ortszeit Stationsdruck (hPa) Tendenz (hPa in 3 Std.)
Sa, 08.08. 14:00 796 0,0
Sa, 08.08. 8:00 796 - 0,1
Sa, 08.08. 2:00 797 + 0,5
Fr, 07.08. 20:00 795 0,0
Fr, 07.08. 14:00 795 + 0,2
Fr, 07.08. 8:00 795 + 0,1
Fr, 07.08. 2:00 795 + 0,1
Do, 06.08. 20:00 794 + 0,3
Ortszeit Stationsdruck (hPa) Tendenz (hPa in 3 Std.)
Sa, 08.08. 14:00 796 0,0
Sa, 08.08. 13:55 - keine Meldung
Sa, 08.08. 13:00 796 + 0,1
Sa, 08.08. 12:55 - keine Meldung
Sa, 08.08. 12:00 796 + 0,1
Sa, 08.08. 11:55 - keine Meldung
Sa, 08.08. 11:00 796 + 0,1
Sa, 08.08. 10:55 - keine Meldung
Sa, 08.08. 10:00 796 0,0
Ortszeit Schneehöhe (cm)
Sa, 08.08. 14:00 -
Sa, 08.08. 8:00 0
Sa, 08.08. 2:00 -
Fr, 07.08. 20:00 -
Fr, 07.08. 14:00 -
Fr, 07.08. 8:00 0
Fr, 07.08. 2:00 -
Do, 06.08. 20:00 -
Ortszeit Schneehöhe (cm)
Sa, 08.08. 14:00 -
Sa, 08.08. 13:55 -
Sa, 08.08. 13:00 -
Sa, 08.08. 12:55 -
Sa, 08.08. 12:00 -
Sa, 08.08. 11:55 -
Sa, 08.08. 11:00 -
Sa, 08.08. 10:55 -
Sa, 08.08. 10:00 -
Link zu dieser Seite / Seite empfehlen

Das Wetter in ...